Overview Statistics Trail Chart Weather Telemetry Raw packets
 

This is the latest recevied weather packets stored in our database for station/object K7OWW-2. If no packets are shown the sender has not sent any weather packets the latest 10 day(s).

<< 16 17 18 19 20 21 22 >>
Time Temp. Humidity Pressure Rain* Wind** Luminosity Snow
1788274731 4.44° C 85% 1009.5 hPa 0 mm - - -
1788274131 3.89° C 87% 1009.6 hPa 0 mm - - -
1788273531 3.33° C 89% 1009.6 hPa 0 mm - - -
1788272931 2.78° C 90% 1009.7 hPa 0 mm - - -
1788272331 2.78° C 90% 1009.7 hPa 0 mm - - -
1788271731 2.78° C 89% 1009.6 hPa 0 mm - - -
1788271131 2.78° C 89% 1009.4 hPa 0 mm - - -
1788270531 2.78° C 89% 1009.4 hPa 0 mm - - -
1788269931 2.78° C 88% 1009.4 hPa 0 mm - - -
1788269331 3.33° C 89% 1009.5 hPa 0 mm - - -
1788268731 3.33° C 88% 1009.4 hPa 0 mm - - -
1788268131 3.33° C 88% 1009.2 hPa 0 mm - - -
1788267531 3.89° C 88% 1009.2 hPa 0 mm - - -
1788266931 3.89° C 88% 1009.2 hPa 0 mm - - -
1788266331 3.89° C 86% 1009.1 hPa 0 mm - - -
1788265731 4.44° C 87% 1009 hPa 0 mm - - -
1788265131 5° C 86% 1009 hPa 0 mm - - -
1788264531 5° C 87% 1009.1 hPa 0 mm - - -
1788263931 5° C 86% 1009.1 hPa 0 mm - - -
1788263331 5.56° C 86% 1009.2 hPa 0 mm - - -
1788262731 5.56° C 85% 1009.2 hPa 0 mm - - -
1788262131 6.11° C 85% 1009.3 hPa 0 mm - - -
1788261531 6.11° C 85% 1009.3 hPa 0 mm - - -
1788260931 6.11° C 84% 1009.2 hPa 0 mm - - -
1788260331 6.67° C 84% 1009.2 hPa 0 mm - - -

* Rain latest hour (hover to see other rain measurements)
** Current wind speed in m/s (hover to see current wind gust speed)